This is the latest recevied weather packets stored in our database for station/object LU3HGB-WX. If no packets are shown the sender has not sent any weather packets the latest 10 day(s).
| Time | Temp. | Humidity | Pressure | Rain* | Wind** | Luminosity | Snow |
|---|---|---|---|---|---|---|---|
| 1788219461 | 8.89° C | 78% | 1020 hPa | 0 mm | - | 0 W/m² | - |
| 1788219159 | 8.89° C | 81% | 1020 hPa | 0 mm | - | 0 W/m² | - |
| 1788218860 | 9.44° C | 79% | 1020 hPa | 0 mm | - | 0 W/m² | - |
| 1788218560 | 9.44° C | 78% | 1020 hPa | 0 mm | - | 0 W/m² | - |
| 1788218259 | 10° C | 77% | 1019 hPa | 0 mm | - | 0 W/m² | - |
| 1788217960 | 10° C | 77% | 1019 hPa | 0 mm | - | 0 W/m² | - |
| 1788217660 | 10° C | 77% | 1019 hPa | 0 mm | - | 0 W/m² | - |
| 1788217360 | 10.56° C | 75% | 1019 hPa | 0 mm | - | 0 W/m² | - |
| 1788217060 | 11.11° C | 74% | 1019 hPa | 0 mm | - | 0 W/m² | - |
| 1788216760 | 11.11° C | 73% | 1019 hPa | 0 mm | - | 0 W/m² | - |
| 1788216459 | 11.67° C | 72% | 1019 hPa | 0 mm | - | 0 W/m² | - |
| 1788216159 | 12.22° C | 69% | 1019 hPa | 0 mm | - | 0 W/m² | - |
| 1788215859 | 12.22° C | 69% | 1019 hPa | 0 mm | - | 0 W/m² | - |
| 1788215560 | 13.33° C | 69% | 1019 hPa | 0 mm | - | 0 W/m² | - |
| 1788215260 | 13.89° C | 65% | 1019 hPa | 0 mm | - | 0 W/m² | - |
| 1788214960 | 13.89° C | 63% | 1019 hPa | 0 mm | - | 0 W/m² | - |
| 1788214661 | 14.44° C | 62% | 1019 hPa | 0 mm | - | 1 W/m² | - |
| 1788214360 | 15° C | 63% | 1019 hPa | 0 mm | - | 2 W/m² | - |
| 1788214059 | 15.56° C | 60% | 1019 hPa | 0 mm | - | 4 W/m² | - |
| 1788213760 | 15.56° C | 57% | 1019 hPa | 0 mm | - | 7 W/m² | - |
| 1788213460 | 16.11° C | 59% | 1019 hPa | 0 mm | - | 12 W/m² | - |
| 1788213162 | 16.11° C | 56% | 1019 hPa | 0 mm | - | 14 W/m² | - |
| 1788212860 | 16.11° C | 55% | 1019 hPa | 0 mm | - | 19 W/m² | - |
| 1788212559 | 16.11° C | 55% | 1018 hPa | 0 mm | - | 26 W/m² | - |
| 1788212260 | 16.11° C | 55% | 1018 hPa | 0 mm | - | 38 W/m² | - |
* Rain latest hour (hover to see other rain measurements)
** Current wind speed in m/s (hover to see current wind gust speed)